Theta_e
313 313 313 313 313 314 314 314 314 313 306 303 300 301 306 306 302 304 304 302 301 301 306 304 306 306 305 308 309 316 325 331 334 336 335 329 333 332 324 330 324 323 326 316 309
313 312 311 311 311 312 314 314 315 316 314 312 310 306 304 305 306 304 301 300 300 300 305 304 305 305 307 307 309 314 316 318 323 328 332 332 331 332 327 326 324 324 320 309 310
310 310 309 309 309 311 312 313 314 314 315 314 313 309 304 301 301 300 301 300 301 303 301 304 306 306 306 306 308 311 313 315 317 321 325 328 327 324 325 330 327 329 327 315 311
307 307 307 307 308 308 310 311 313 313 313 311 308 310 303 301 301 300 302 305 303 303 303 305 305 306 307 307 306 307 310 311 314 317 319 320 321 319 321 326 327 323 322 318 313
304 304 304 304 305 306 306 308 309 311 311 308 306 308 303 299 300 299 300 302 304 302 302 304 305 306 307 306 307 307 307 308 311 312 314 314 315 317 317 316 316 315 313 315 315
301 301 301 301 302 302 303 304 309 311 311 307 308 307 300 300 299 298 299 300 303 302 301 303 304 306 307 309 310 310 310 309 310 311 311 311 312 313 313 313 313 314 314 314 314
300 300 300 300 301 301 301 301 306 311 311 302 307 306 299 303 299 297 298 298 299 301 302 302 304 307 308 308 309 309 310 311 311 312 312 310 313 313 311 312 314 315 314 313 313
299 299 299 300 300 300 302 301 299 310 308 300 306 305 301 298 297 296 297 297 298 300 300 300 303 305 306 307 308 308 308 311 311 311 311 312 316 317 314 314 314 314 314 314 313
298 298 298 299 300 300 299 303 308 305 302 305 306 301 302 296 295 296 297 298 298 298 299 298 302 305 305 307 308 309 308 309 309 310 308 311 315 314 309 310 312 312 312 311 311
297 297 297 297 297 299 301 308 305 303 305 307 295 299 300 300 296 296 296 297 299 299 300 301 303 304 305 307 306 306 308 307 307 309 307 309 310 311 311 309 310 311 311 311 310
295 295 295 296 295 298 301 305 303 306 301 303 304 302 300 297 296 296 296 297 298 299 300 300 302 303 303 305 306 306 306 306 306 306 307 309 310 310 309 308 308 308 308 308 309
294 293 293 293 295 293 299 299 295 295 299 300 301 303 304 307 308 299 297 300 299 301 300 299 302 304 303 304 305 305 305 305 305 305 304 306 306 306 306 306 306 306 307 307 308
293 293 293 292 294 291 296 295 293 293 299 303 303 304 306 307 308 309 298 300 303 301 300 306 309 302 301 302 304 304 305 305 304 304 304 303 305 305 306 306 306 306 306 306 306
293 293 292 291 291 292 293 293 293 294 303 304 305 303 298 305 308 307 298 303 299 305 302 301 306 301 300 301 302 303 304 304 304 304 303 301 303 305 306 305 303 304 305 305 305
293 293 291 292 292 292 292 292 293 297 301 301 303 296 296 301 297 297 297 300 306 299 300 304 299 299 303 303 301 303 302 303 304 304 304 302 300 304 303 304 305 306 306 306 306
292 292 290 291 292 292 292 292 295 304 302 302 298 295 295 299 298 297 297 297 298 300 298 302 296 298 300 297 301 299 300 300 300 301 303 303 301 306 307 306 306 305 305 306 306
291 291 289 291 292 290 290 294 299 301 298 294 293 292 294 298 299 298 297 299 301 303 305 302 299 297 297 298 298 301 301 304 305 305 307 303 302 305 306 305 304 306 306 304 305
287 288 289 290 288 289 292 295 295 292 293 291 291 292 296 298 297 297 298 299 299 298 302 306 307 299 298 301 301 300 302 307 311 310 308 298 302 305 304 305 304 303 303 304 305
287 287 288 289 288 290 293 293 292 288 289 291 292 291 292 293 295 298 299 299 299 299 302 304 303 297 296 298 301 300 301 302 305 300 305 305 303 304 305 305 305 304 304 304 302
287 288 288 288 288 291 292 289 288 288 288 290 290 291 293 293 292 293 295 299 294 296 297 299 304 297 296 296 298 300 301 301 303 308 308 307 307 308 307 306 302 301 300 300 299
288 290 288 288 288 292 289 288 289 288 288 289 290 293 290 291 291 291 295 297 292 292 295 300 300 300 297 299 300 299 301 301 305 304 308 308 309 302 303 302 301 299 299 299 298
287 289 288 288 290 283 289 287 288 287 288 289 290 289 289 291 290 292 291 292 291 291 294 299 301 301 302 297 295 299 301 302 304 305 302 305 307 302 300 300 301 300 299 297 297
287 287 288 287 288 288 287 287 287 287 288 288 289 288 288 290 289 290 289 290 289 290 293 294 300 304 302 300 296 299 299 299 302 302 311 308 307 300 299 300 299 299 297 296 295
288 288 288 286 286 287 287 287 287 287 288 288 288 288 289 288 288 288 289 289 289 289 291 291 294 298 300 301 301 300 299 299 302 305 305 304 306 301 300 300 298 296 295 294 293
287 287 285 287 287 287 285 287 287 287 288 288 287 287 288 288 287 286 287 289 288 288 288 290 291 293 293 294 297 304 300 299 301 302 305 303 303 303 300 298 295 294 294 293 292
288 287 286 287 284 286 285 285 286 286 287 287 288 288 287 287 288 288 288 289 288 288 288 290 290 291 295 293 297 298 300 306 304 300 301 305 307 298 296 295 293 292 292 291 290
286 286 287 286 286 286 286 285 285 286 287 287 287 288 288 287 288 288 289 288 288 288 289 288 290 292 293 293 294 298 301 301 306 304 304 302 301 300 295 292 291 290 289 288 286
Wind_Speed
22 21 20 20 20 20 20 20 20 19 17 17 17 17 16 16 17 9 13 13 8 19 12 8 6 5 2 5 4 3 9 15 26 26 23 4 11 17 4 13 6 10 10 1 4
19 19 20 21 22 21 20 20 20 20 19 19 18 15 14 15 13 16 24 16 13 14 12 12 8 9 5 4 5 11 13 22 22 20 22 18 15 18 9 14 14 13 12 6 11
19 20 21 23 23 23 23 22 21 22 20 21 18 16 11 9 6 6 3 11 12 13 10 7 5 5 7 6 9 7 17 22 21 20 18 19 15 12 16 23 20 21 19 13 15
21 23 23 24 26 25 25 24 24 24 23 22 17 14 6 1 8 2 5 12 12 13 9 9 6 6 6 10 12 12 15 23 19 16 11 18 15 14 20 26 21 14 17 11 16
23 23 24 25 26 28 27 26 25 24 23 21 14 10 1 4 11 8 10 12 13 13 12 10 11 9 10 6 10 13 18 14 17 19 17 13 17 19 16 21 19 16 11 16 16
25 25 25 27 28 29 29 29 25 24 24 18 10 5 3 8 7 9 12 13 11 13 10 11 6 9 6 7 11 4 13 18 14 18 14 12 20 11 12 27 23 22 24 22 22
25 26 28 29 31 32 33 31 23 22 25 12 8 7 4 15 6 10 13 12 13 11 6 12 10 8 3 8 6 7 13 17 16 17 11 5 20 22 26 25 23 22 22 20 22
28 29 31 32 34 36 36 30 23 20 13 6 7 6 8 9 10 14 14 8 10 12 6 2 9 7 6 5 4 5 5 8 4 8 6 11 28 14 18 18 21 23 20 19 21
29 31 33 34 38 38 37 25 19 5 3 7 8 5 8 4 7 17 18 6 7 5 6 2 5 7 5 10 11 9 15 19 14 10 5 16 21 9 4 9 16 16 15 15 16
29 30 32 35 36 33 35 20 5 2 4 6 1 3 7 5 5 7 15 13 4 9 5 6 6 9 10 11 17 17 17 15 15 5 8 14 27 20 16 13 15 16 18 19 19
29 30 32 33 37 29 29 6 6 2 5 8 4 7 2 3 8 9 10 11 6 5 11 9 9 20 22 25 28 17 15 22 13 4 6 19 27 23 21 23 22 22 23 24 24
30 32 34 35 29 26 20 7 6 7 14 18 25 28 37 19 12 9 15 13 12 17 11 6 22 23 21 22 24 25 24 27 18 11 6 20 34 25 21 26 24 24 24 25 26
32 34 36 34 19 27 10 10 15 19 6 15 14 14 9 23 21 22 23 9 16 17 24 22 26 15 19 17 21 25 27 25 22 9 15 14 30 22 20 27 25 23 24 25 25
32 35 37 28 6 23 7 21 23 13 5 9 3 6 4 4 8 16 32 16 12 25 19 18 28 14 15 22 23 24 19 21 19 8 11 2 16 20 18 15 12 15 19 22 21
34 35 31 20 11 10 18 26 23 3 5 6 5 6 7 5 9 2 4 11 27 13 10 16 9 17 21 25 20 13 6 15 16 16 11 16 8 16 4 5 13 19 19 16 13
35 35 24 17 13 16 27 24 3 3 10 9 8 21 29 13 6 6 4 5 6 10 12 21 3 6 7 1 20 15 8 7 4 5 8 18 13 35 15 12 11 7 6 2 1
36 32 19 15 12 28 29 7 1 5 16 13 16 28 24 24 14 4 5 12 8 8 17 16 20 6 4 6 4 12 10 5 6 6 11 3 13 28 7 11 11 8 5 6 5
34 26 16 16 24 25 14 2 1 13 7 24 20 23 13 19 15 21 6 8 18 8 5 9 9 21 16 20 11 17 16 7 12 10 14 6 13 11 6 12 11 7 9 11 7
33 25 14 16 28 17 4 7 8 16 16 21 24 15 16 20 7 12 12 11 6 15 10 5 8 3 2 6 14 8 13 19 6 1 4 8 11 10 14 14 8 7 4 4 7
26 10 9 26 22 6 6 7 6 12 17 13 11 7 12 17 16 16 12 16 17 19 20 12 15 2 3 3 6 10 6 7 6 8 11 13 16 12 6 5 5 9 10 10 12
10 4 15 26 7 4 6 5 7 17 15 10 13 9 16 14 15 13 7 18 21 22 23 11 9 4 1 10 15 8 9 6 3 6 6 7 6 6 4 7 9 11 12 12 13
4 3 15 20 6 1 6 6 11 10 15 8 8 11 12 17 12 7 14 8 14 18 16 10 7 11 19 1 3 10 14 18 6 8 6 5 4 6 10 10 11 11 11 12 14
2 3 8 8 6 7 7 6 3 10 14 7 7 13 17 13 9 13 18 16 14 16 11 14 5 5 6 2 1 5 14 9 18 3 15 10 9 4 7 9 9 11 10 11 12
2 4 3 4 2 5 9 6 9 11 11 8 11 12 14 13 14 11 23 13 21 22 13 11 6 10 10 16 14 6 8 18 16 11 14 14 19 9 9 7 7 10 10 11 13
3 2 1 5 6 9 3 5 12 12 5 8 10 10 15 9 19 17 18 22 22 13 11 9 10 14 19 21 20 19 9 8 15 22 14 19 17 10 8 8 7 7 9 11 13
2 3 1 6 2 4 4 6 12 13 9 16 16 18 19 14 16 21 19 16 14 20 12 8 11 16 18 20 14 18 15 17 13 19 22 22 23 11 10 9 8 9 10 12 13
2 3 2 6 4 3 5 9 20 21 13 17 18 19 20 22 17 16 17 20 19 18 22 8 8 11 16 19 18 11 2 9 9 12 16 19 19 4 6 10 10 8 11 12 12
Wind_Direction
23 19 14 7 3 359 353 349 346 343 340 336 326 317 313 310 305 286 247 244 232 227 206 177 159 152 188 225 228 221 237 238 246 251 248 257 240 239 267 251 211 197 243 87 126
22 13 5 359 360 355 351 346 341 337 332 330 322 311 310 313 301 260 267 251 229 206 195 193 187 157 183 222 214 215 230 237 242 257 262 262 251 251 242 227 236 231 220 175 163
9 3 358 356 355 350 346 342 339 336 328 323 311 307 307 320 280 247 269 203 200 187 195 197 163 175 205 195 198 227 242 243 254 258 267 262 241 242 242 253 244 247 246 204 189
2 359 356 352 348 345 341 337 334 332 327 324 311 297 304 314 277 216 163 171 188 189 171 162 174 187 229 208 207 241 247 255 260 263 249 247 252 241 241 253 256 267 262 220 209
4 359 352 345 343 339 334 329 325 324 324 324 307 290 245 221 249 236 174 177 184 187 200 191 189 207 224 224 228 235 254 261 259 264 255 258 244 248 246 255 259 258 238 234 224
5 2 354 348 343 335 329 322 319 318 319 316 287 247 199 249 240 216 198 187 186 184 199 204 226 230 276 238 225 314 256 263 269 264 254 246 252 246 233 247 257 254 245 240 234
2 358 352 346 341 333 325 316 308 307 311 295 253 199 216 248 230 205 201 205 208 194 191 211 226 217 231 254 254 276 281 273 250 248 244 220 264 242 241 249 255 253 249 247 237
358 355 350 344 339 333 326 317 305 299 295 260 200 190 248 242 234 213 200 203 199 204 211 202 211 246 238 300 259 257 243 268 216 228 228 194 256 267 248 247 244 251 255 254 246
358 353 349 344 342 337 333 325 307 295 224 168 165 210 255 231 208 219 204 189 175 176 202 159 173 222 195 229 259 227 259 241 272 200 165 208 267 249 209 224 245 252 252 248 249
360 356 352 347 341 338 337 325 327 156 134 171 151 254 222 223 177 176 188 173 161 144 142 191 207 222 218 207 233 239 244 249 250 192 225 242 256 260 255 251 250 261 260 256 252
359 354 350 345 342 344 347 358 359 205 343 251 274 265 283 161 179 183 173 158 135 188 194 194 213 219 214 219 238 262 263 262 268 253 249 254 265 263 267 267 260 256 257 257 254
2 358 354 348 348 1 29 66 60 320 296 267 261 262 256 257 266 207 161 177 184 210 177 173 231 228 230 228 236 241 254 259 264 252 259 277 276 274 261 261 254 251 251 251 254
357 355 351 346 347 359 22 45 348 343 261 280 232 252 253 208 234 240 179 199 217 219 201 214 238 208 204 214 223 235 239 250 253 277 256 283 281 277 252 241 254 250 248 251 249
356 354 350 348 17 344 9 340 333 333 283 276 252 346 4 209 242 229 196 194 203 228 207 234 249 198 195 222 208 239 233 242 248 242 259 237 283 280 277 241 234 244 239 240 245
353 356 357 18 338 356 312 322 322 246 289 8 32 325 336 275 336 34 227 215 229 198 179 221 204 200 217 223 187 236 175 212 226 233 275 227 258 270 98 255 257 248 245 252 250
354 354 358 14 14 338 330 323 319 209 244 341 37 348 341 305 293 328 206 267 306 234 239 250 65 219 225 93 188 135 116 101 130 198 240 237 217 278 267 278 263 284 251 192 115
350 351 9 17 347 349 343 327 206 225 356 3 331 328 318 304 286 240 206 215 214 195 230 236 228 195 177 134 156 192 162 188 210 201 242 182 200 256 319 289 261 271 246 285 294
356 358 15 16 353 345 337 343 251 8 10 329 331 325 321 22 339 342 287 244 230 265 308 223 234 199 186 216 182 197 189 206 229 221 242 165 225 246 255 265 293 298 279 283 296
354 358 15 357 348 346 340 46 13 341 331 332 333 354 338 331 340 336 315 276 321 226 236 253 248 196 203 210 189 175 213 234 282 14 273 218 253 269 249 263 311 355 9 36 48
347 349 349 348 352 19 47 42 331 333 328 334 332 302 329 356 355 343 309 44 355 351 339 282 280 157 145 183 239 214 164 185 219 224 228 245 259 256 236 220 53 50 50 53 47
344 4 357 351 13 28 40 333 310 322 337 322 317 314 327 341 330 326 278 321 13 342 327 285 242 261 170 211 197 180 202 221 255 231 236 254 239 4 39 87 84 67 60 56 53
2 17 352 1 36 20 359 331 310 313 338 326 301 330 335 323 321 316 321 305 350 336 323 358 296 261 235 129 294 256 230 203 206 197 233 303 264 60 88 85 87 76 64 53 51
21 302 341 20 27 11 326 313 288 309 330 319 308 323 318 311 322 311 326 329 329 336 339 1 316 297 230 195 30 227 228 249 243 345 224 220 242 124 116 93 75 73 58 54 46
25 359 327 33 47 351 343 311 330 322 304 309 300 318 335 315 321 314 306 316 324 314 308 339 295 323 310 320 329 269 224 215 214 228 224 222 235 173 171 129 82 69 57 48 43
23 24 335 318 328 320 317 284 307 324 299 309 308 318 325 305 313 307 308 316 317 300 325 328 298 306 302 296 298 282 259 251 228 224 221 231 242 206 153 117 75 57 61 54 47
23 347 241 288 267 293 332 292 297 313 320 301 298 293 305 292 282 292 303 310 301 307 310 300 288 300 289 307 313 315 298 239 236 251 258 249 246 81 108 110 75 56 53 48 43
308 265 249 285 302 285 295 301 301 309 296 302 296 293 283 297 306 296 290 285 274 279 290 287 284 295 285 298 312 285 331 327 257 229 250 246 256 203 108 69 51 51 59 53 36